Weather History for Sandberg, CA

Change the Weather History Date:

Saturday, May 4, 2013

  Actual Average Record
Temperature  
Mean Temperature 62 °F 55 °F  
Max Temperature 77 °F 64 °F 84 °F (2004)
Min Temperature 46 °F 46 °F 26 °F (1975)
Degree Days  
Heating Degree Days 3 11  
Month to date heating degree days 4 44  
Since 1 July heating degree days 2897 3819  
Cooling Degree Days 0 1  
Month to date cooling degree days 10 2  
Year to date cooling degree days 60 10  
Growing Degree Days 12 (Base 50)    
Moisture  
Dew Point 32 °F    
Average Humidity 52    
Maximum Humidity 93    
Minimum Humidity 11    
Precipitation  
Precipitation 0.00 in 0.03 in 0.33 in (1967)
Month to date precipitation 0.00 0.10  
Year to date precipitation 2.53 8.11  
Since 1 July precipitation 3.90 11.96  
Sea Level Pressure  
Sea Level Pressure 29.72 in    
Wind  
Wind Speed 18 mph (SSW)    
Max Wind Speed 30 mph    
Max Gust Speed 36 mph    
Visibility 8 miles    
Events Fog    
T = Trace of Precipitation, MM = Missing Value Source: NWS Daily Summary

Daily Weather History Graph

Daily Weather History Graph

Search for Another Location

Airport:

Trip Planner

Search our weather history database for the weather conditions in past years. The results will help you decide how hot, cold, wet, or windy it might be!

Date:

Astronomy

May. 04, 2013 Rise Set
Actual Time 6:01 AM PDT 7:42 PM PDT
Civil Twilight 5:33 AM PDT 8:09 PM PDT
Nautical Twilight 5:01 AM PDT 8:42 PM PDT
Astronomical Twilight 4:26 AM PDT 9:17 PM PDT
Moon 2:49 AM PDT (5/4) 2:56 PM PDT (5/4)
Length of Visible Light 14h 35m
Length of Day
13h 41m
Waning Crescent, 26% of the Moon is Illuminated
May 4
Waning Crescent
May 9
New
May 17
First Quarter
May 24
Full
May 31
Last Quarter

Hourly Weather History & Observations

Time (PDT) Temp. Dew Point Humidity Pressure Visibility Wind Dir Wind Speed Gust Speed Precip Events Conditions
12:48 AM 64.9 °F 25.0 °F 22% 29.80 in 10.0 mi NNW 15.0 mph - N/A   Clear
1:48 AM - - N/A% - - North - - N/A   Unknown
2:48 AM 64.0 °F 28.0 °F 26% 29.75 in 10.0 mi NW 15.0 mph - N/A   Clear
3:48 AM 64.0 °F 28.0 °F 26% 29.74 in 10.0 mi NNW 18.4 mph 28.8 mph N/A   Clear
4:48 AM 63.0 °F 30.0 °F 29% 29.73 in 10.0 mi NNW 11.5 mph - N/A   Clear
5:48 AM 64.0 °F 26.1 °F 24% 29.73 in 10.0 mi NNW 12.7 mph 21.9 mph N/A   Clear
6:48 AM 64.9 °F 26.1 °F 23% 29.74 in 10.0 mi NW 11.5 mph - N/A   Clear
7:48 AM 66.9 °F 27.0 °F 22% 29.74 in 10.0 mi WNW 5.8 mph - N/A   Clear
8:48 AM 68.0 °F 25.0 °F 20% 29.74 in 10.0 mi SSW 8.1 mph - N/A   Clear
9:48 AM 71.1 °F 19.0 °F 14% 29.73 in 10.0 mi South 15.0 mph - N/A   Clear
10:48 AM 73.9 °F 15.1 °F 11% 29.72 in 10.0 mi SSE 13.8 mph - N/A   Clear
11:48 AM 75.0 °F 17.1 °F 11% 29.70 in 10.0 mi South 18.4 mph 25.3 mph N/A   Clear
12:48 PM 75.9 °F 23.0 °F 14% 29.68 in 10.0 mi South 20.7 mph 28.8 mph N/A   Clear
1:48 PM 75.0 °F 30.0 °F 19% 29.68 in 10.0 mi South 20.7 mph 28.8 mph N/A   Clear
2:48 PM 73.9 °F 35.1 °F 24% 29.66 in 10.0 mi South 21.9 mph 28.8 mph N/A   Clear
3:48 PM 72.0 °F 37.0 °F 28% 29.66 in 10.0 mi South 23.0 mph 33.4 mph N/A   Clear
4:48 PM 69.1 °F 37.0 °F 31% 29.67 in 10.0 mi South 26.5 mph 35.7 mph N/A   Clear
5:48 PM 66.0 °F 39.0 °F 37% 29.67 in 10.0 mi South 25.3 mph 35.7 mph N/A   Clear
6:48 PM 60.1 °F 42.1 °F 51% 29.67 in 10.0 mi South 24.2 mph 33.4 mph N/A   Clear
7:48 PM 55.9 °F 39.9 °F 55% 29.69 in 10.0 mi South 21.9 mph 31.1 mph N/A   Clear
9:36 PM 50.0 °F 46.4 °F 87% 29.84 in 1.5 mi SSW 16.1 mph - N/A   Mist
9:39 PM 50.0 °F 46.4 °F 87% 29.84 in 0.8 mi SSW 17.3 mph - N/A   Mist
9:48 PM 50.0 °F 46.0 °F 86% 29.71 in 0.2 mi SSW 19.6 mph 26.5 mph N/A Fog Fog
10:48 PM 48.9 °F 46.0 °F 90% 29.70 in 0.2 mi SSW 16.1 mph 27.6 mph N/A Fog Fog
10:58 PM 48.2 °F 44.6 °F 87% 29.83 in 0.2 mi SSW 16.1 mph - N/A Fog Fog
11:48 PM 46.9 °F 44.1 °F 90% 29.71 in 0.2 mi South 24.2 mph 29.9 mph N/A Fog Fog